Content
SEND FEEDBACK

Daily
Averages
Monthly
Summary
United States of America

GRANITE FALLS, WASHINGTON


Home > North America > United States > Washington
Elevation: 671 feet     Latitude: 48 15N     Longitude: 121 36W

WEATHER
 
SELECT A DAY
Number of Records: 426,530;   Date Range: 2/21/96 - 9/14/14
 
SHARE

PRINT THIS DATA

[ ← Previous Day ]
WEATHER ALMANAC - JANUARY 31, 2013
[ Next Day → ]
[ °C ]   °F
Weather ElementAverageHighLow
Temperature45.2 °F48.2 °F (1:15 pm)42.8 °F (12:55 am)
Dewpoint42.9 °F44.6 °F (9:35 am)41 °F (1:55 am)
Humidity91.4 %100 % (12:55 am)87 % (8:55 am)
Barometer30.36 in30.40 in (1:35 am)30.32 in (1:55 pm)
Wind Speed4.5 mph13.8 mph (12:15 pm)
Wind Gust19.6 mph (12:55 pm)
Weather ElementAverage
Visibility9.2 mi
Wind DirectionENE (71.9 °)

Weather ElementTotal
Precipitation0.03 in
Heating Degree Days19.5 (Base 65)
Averaged from 68 records on January 31, 2013
WEATHER CONDITIONS BREAKOUT
WIND DIRECTION BREAKOUT
WEATHER BY HOUR - JANUARY 31, 2013
[ °C ]   °F
Local TimeTemperatureDewpointHumidityBarometerVisibilityWind DirectionWind SpeedGust SpeedPrecipitationEventsConditions
12:35 AM44.6 °F42.8 °F93 %30.39 in2.5 miCalmOvercast
12:55 AM42.8 °F42.8 °F100 %30.39 in3.0 miCalmOvercast
1:15 AM42.8 °F42.8 °F100 %30.39 in3.0 miCalmOvercast
1:35 AM42.8 °F42.8 °F100 %30.40 in2.5 miCalmOvercast
1:55 AM42.8 °F41.0 °F93 %30.40 in2.5 miCalmOvercast
2:15 AM42.8 °F41.0 °F93 %30.40 in3.0 miCalm0.01 inOvercast
2:35 AM42.8 °F42.8 °F100 %30.40 in4.0 miCalm0.01 inOvercast
2:55 AM42.8 °F42.8 °F100 %30.40 in10.0 miCalm0.01 inOvercast
3:15 AM42.8 °F41.0 °F93 %30.40 in10.0 miCalmOvercast
3:35 AM42.8 °F41.0 °F93 %30.40 in10.0 miCalmOvercast
3:55 AM42.8 °F41.0 °F93 %30.40 in7.0 miCalmOvercast
4:15 AM42.8 °F41.0 °F93 %30.40 in9.0 miCalmOvercast
4:35 AM42.8 °F41.0 °F93 %30.40 in10.0 miCalmOvercast
4:55 AM42.8 °F41.0 °F93 %30.39 in10.0 miCalmOvercast
5:15 AM44.6 °F42.8 °F93 %30.39 in10.0 miCalmOvercast
5:35 AM44.6 °F42.8 °F93 %30.39 in10.0 miCalmOvercast
5:55 AM44.6 °F42.8 °F93 %30.39 in10.0 miCalmOvercast
6:15 AM42.8 °F42.8 °F100 %30.38 in9.0 miCalmOvercast
6:35 AM42.8 °F41.0 °F93 %30.37 in7.0 miCalmOvercast
6:55 AM44.6 °F42.8 °F93 %30.38 in10.0 miCalmOvercast
7:15 AM44.6 °F42.8 °F93 %30.38 in10.0 miCalmOvercast
7:35 AM44.6 °F42.8 °F93 %30.37 in10.0 miSSE (150°)5.8 mphOvercast
7:55 AM44.6 °F42.8 °F93 %30.38 in10.0 miCalmOvercast
8:15 AM44.6 °F42.8 °F93 %30.37 in10.0 miSSE (150°)5.8 mphOvercast
8:35 AM44.6 °F42.8 °F93 %30.37 in10.0 miCalmOvercast
8:55 AM46.4 °F42.8 °F87 %30.38 in10.0 miCalmOvercast
9:15 AM46.4 °F42.8 °F87 %30.37 in10.0 miSE (140°)5.8 mphOvercast
9:35 AM46.4 °F44.6 °F93 %30.37 in10.0 miSSE (150°)4.6 mphOvercast
9:55 AM46.4 °F44.6 °F93 %30.36 in10.0 miSE (140°)6.9 mphOvercast
10:15 AM46.4 °F44.6 °F93 %30.36 in10.0 miSSE (150°)10.4 mphOvercast
10:35 AM46.4 °F42.8 °F87 %30.37 in10.0 miSSE (150°)8.1 mphOvercast
10:55 AM46.4 °F42.8 °F87 %30.37 in10.0 miSE (140°)10.4 mphOvercast
11:15 AM46.4 °F44.6 °F93 %30.37 in10.0 miSSE (150°)9.2 mphOvercast
11:35 AM46.4 °F44.6 °F93 %30.36 in10.0 miSE (140°)11.5 mphOvercast
11:55 AM46.4 °F44.6 °F93 %30.35 in10.0 miSE (140°)12.7 mphOvercast
12:15 PM46.4 °F44.6 °F93 %30.35 in10.0 miSE (140°)13.8 mphOvercast
12:35 PM46.4 °F44.6 °F93 %30.34 in10.0 miSE (140°)11.5 mphOvercast
12:55 PM46.4 °F44.6 °F93 %30.34 in10.0 miSE (140°)13.8 mph19.6 mphOvercast
1:15 PM48.2 °F44.6 °F87 %30.33 in10.0 miSE (140°)12.7 mphOvercast
1:35 PM46.4 °F44.6 °F93 %30.33 in10.0 miSE (140°)11.5 mph18.4 mphOvercast
1:55 PM46.4 °F44.6 °F93 %30.32 in10.0 miSE (130°)13.8 mphOvercast
2:15 PM46.4 °F42.8 °F87 %30.32 in10.0 miSE (140°)12.7 mph18.4 mphOvercast
2:35 PM46.4 °F42.8 °F87 %30.32 in10.0 miSE (140°)12.7 mphOvercast
2:55 PM46.4 °F42.8 °F87 %30.32 in10.0 miSE (130°)10.4 mphOvercast
3:15 PM46.4 °F42.8 °F87 %30.32 in10.0 miSE (130°)10.4 mphOvercast
3:35 PM46.4 °F42.8 °F87 %30.32 in10.0 miSE (130°)9.2 mphOvercast
3:55 PM46.4 °F42.8 °F87 %30.32 in10.0 miSE (130°)8.1 mphOvercast
4:15 PM46.4 °F42.8 °F87 %30.32 in10.0 miSE (140°)10.4 mphOvercast
4:35 PM46.4 °F42.8 °F87 %30.32 in10.0 miSE (140°)6.9 mphOvercast
4:55 PM46.4 °F42.8 °F87 %30.32 in10.0 miSE (140°)5.8 mphOvercast
5:15 PM46.4 °F42.8 °F87 %30.32 in10.0 miSE (140°)5.8 mphOvercast
5:35 PM46.4 °F42.8 °F87 %30.33 in10.0 miESE (120°)5.8 mphOvercast
5:55 PM46.4 °F42.8 °F87 %30.33 in10.0 miSSE (150°)4.6 mphOvercast
6:15 PM46.4 °F42.8 °F87 %30.33 in10.0 miSE (130°)6.9 mphOvercast
6:35 PM46.4 °F42.8 °F87 %30.32 in10.0 miSE (140°)4.6 mphMostly Cloudy
7:15 PM46.4 °F42.8 °F87 %30.32 in10.0 miSSE (150°)4.6 mphOvercast
7:35 PM46.4 °F42.8 °F87 %30.32 in10.0 miSE (140°)8.1 mphOvercast
8:15 PM46.4 °F42.8 °F87 %30.33 in10.0 miSE (130°)3.5 mphOvercast
8:35 PM46.4 °F42.8 °F87 %30.33 in10.0 miSE (140°)5.8 mphOvercast
8:55 PM46.4 °F42.8 °F87 %30.33 in10.0 miCalmOvercast
9:15 PM44.6 °F42.8 °F93 %30.33 in10.0 miCalmOvercast
9:35 PM46.4 °F42.8 °F87 %30.33 in10.0 miCalmOvercast
9:55 PM44.6 °F42.8 °F93 %30.33 in10.0 miCalmOvercast
10:15 PM44.6 °F42.8 °F93 %30.34 in10.0 miCalmOvercast
10:55 PM44.6 °F42.8 °F93 %30.34 in10.0 miCalmOvercast
11:15 PM44.6 °F42.8 °F93 %30.34 in10.0 miCalmOvercast
11:35 PM44.6 °F42.8 °F93 %30.34 in10.0 miCalmOvercast
11:55 PM44.6 °F42.8 °F93 %30.35 in10.0 miCalmOvercast
Hourly data recorded from KAWO, located miles away from Granite Falls, Washington







STORIES FROM OUR PARTNERS